Regional Weather Roundup
Issued by NWS Boston, MA

Current Version | Previous Version | Text Only | Print | Product List | Glossary Off
Versions: 1 2 3 4 5 6 7 8 9 10 11 12 13 14 15 16 17 18 19 20 21 22 23 24 25 26 27 28 29 30 31 32 33 34 35 36 37 38 39 40 41 42 43 44 45 46 47 48 49 50
000 ASUS41 KBOX 241210 RWRBOX REGIONAL WEATHER ROUNDUP NATIONAL WEATHER SERVICE BOSTON/NORTON MA 800 AM EDT TUE APR 24 2018 NOTE: "FAIR" INDICATES FEW OR NO CLOUDS BELOW 12,000 FEET WITH NO SIGNIFICANT WEATHER AND/OR OBSTRUCTIONS TO VISIBILITY. MAZALL-241300- EASTERN MASSACHUSETTS CITY SKY/WX TMP DP RH WIND PRES REMARKS BOSTON FAIR 48 36 63 SW10 30.41S 6HR MIN TEMP: 42; 6HR MAX TEMP: 48; BEVERLY FAIR 50 31 48 SW7 30.40S LAWRENCE FAIR 48 29 47 SW5 30.41S BEDFORD FAIR 48 31 51 SW7 30.39S BLUE HILL N/A 46 37 71 SW12 30.39S NORWOOD FAIR 50 38 63 SW6 30.42S MARSHFIELD FAIR 48 37 66 SW6 30.42F PLYMOUTH FAIR 48 39 71 SW8 30.43S TAUNTON FAIR 48 38 68 SW5 30.43S NEW BEDFORD FAIR 47 42 83 S7 30.43S $$ MAZALL-241300- CAPE COD AND THE ISLANDS CITY SKY/WX TMP DP RH WIND PRES REMARKS FALMOUTH FAIR 46 39 76 S7 30.45 HYANNIS FAIR 50 40 68 SW9 30.43S CHATHAM FAIR 50 43 77 SW7 30.46S PROVINCETOWN FAIR 47 38 71 S12 30.45R NANTUCKET FAIR 46 45 96 S6 30.46R MARTHAS VNYRD FAIR 47 43 86 S7 30.45R $$ MAZALL-241300- CENTRAL AND WESTERN MASSACHUSETTS CITY SKY/WX TMP DP RH WIND PRES REMARKS WORCESTER FAIR 48 30 49 W13 30.39R 6HR MIN TEMP: 40; 6HR MAX TEMP: 48; FITCHBURG FAIR 52 31 44 CALM 30.39R ORANGE FAIR 40 32 73 CALM 30.41S SPRINGFIELD PTSUNNY 43 35 72 CALM 30.41 WESTFIELD FAIR 40 33 76 S5 30.41S NORTH ADAMS FAIR 45 26 47 CALM 30.39R PITTSFIELD FAIR 42 28 57 CALM 30.38R $$ RIZALL-241300- RHODE ISLAND CITY SKY/WX TMP DP RH WIND PRES REMARKS PROVIDENCE PTSUNNY 46 40 79 SW5 30.45R 6HR MIN TEMP: 35; 6HR MAX TEMP: 46; NEWPORT FAIR 49 42 77 VRB5 30.44R BLOCK ISLAND FAIR 49 41 74 S12 30.44S SMITHFIELD FAIR 47 37 68 MISG 30.43R WESTERLY FAIR 43 41 93 CALM 30.45S $$ CTZALL-241300- CONNECTICUT CITY SKY/WX TMP DP RH WIND PRES REMARKS BRADLEY INTL PTSUNNY 44 38 79 S6 30.42R 6HR MIN TEMP: 36; 6HR MAX TEMP: 44; HARTFORD FAIR 46 40 79 SE3 30.43S BRIDGEPORT FAIR 46 40 79 NE5 30.43S DANBURY FAIR 40 31 70 CALM 30.43S GROTON FAIR 45 43 93 CALM 30.44S NEW HAVEN FAIR 47 42 83 E3 30.43S CHESTER FAIR 52 41 66 SW6 30.43S MERIDEN FAIR 42 38 85 CALM 30.43S WILLIMANTIC FAIR 39 32 76 CALM 30.44S OXFORD FAIR 45 42 89 CALM 30.42R $$ MEZ002-015-021-024-NHZ003-005-008-011-012-014-VTZ005-008-241300- NORTHERN NEW ENGLAND CITY SKY/WX TMP DP RH WIND PRES REMARKS PORTLAND ME FAIR 45 26 47 S7 30.37S 6HR MIN TEMP: 36; 6HR MAX TEMP: 45; BANGOR ME FAIR 47 29 49 SW9 30.33S CONCORD NH FAIR 44 29 55 CALM 30.39R MANCHESTER NH FAIR 46 27 47 S6 30.38R NASHUA NH FAIR 47 29 49 VRB3 30.39S PORTSMOUTH NH MOSUNNY 46 26 45 S6 30.37 JAFFREY NH FAIR 43 32 65 S8 30.39R KEENE NH FAIR 43 36 76 CALM 30.41R BURLINGTON VT PTSUNNY 56 24 29 S12G22 30.30R MT. WASHINGTON NOT AVBL $$ NYZ052-076-241300- EASTERN NEW YORK CITY SKY/WX TMP DP RH WIND PRES REMARKS ALBANY PTSUNNY 50 29 44 S7 30.38R 6HR MIN TEMP: 45; 6HR MAX TEMP: 52; NEW YORK CITY FAIR 48 43 82 NE6 30.42R 6HR MIN TEMP: 46; 6HR MAX TEMP: 50; $$ ANZALL-241300- MARINE OBSERVATIONS STATION/POSITION TIME TEMP WIND PRES VSBY WAVE AIR SEA DIR/SP/G HT/PER (UTC) (F) (DEG/KT/KT) (MB) (MI) (FT/S) BOSTON BUOY 1150 44 44 190/ 8/ 10 1028.9R 1/13 BUZZARDS BAY 1100 45 190/ 10/ 10 1031.5R NANTUCKET SOUND 1050 45 44 200/ 10/ 10 1030.9 1 MASS BAY-STELLWA 1104 43 43 1028.3R 1/ 3 ISLE OF SHOALS 1100 44 200/ 12/ 13 1028.9R S OF BLOCK IS 1143 44 N/A 1/ 8 $$ ......................KEY......................... SKY/WX - SKY CONDITION/PRESENT WEATHER TMP - TEMPERATURE IN FAHRENHEIT DWPT - DEWPOINT IN FAHRENHEIT RH - RELATIVE HUMIDITY IN PERCENT WIND - DIRECTION AND SPEED IN MPH PRES - MEAN SEA LEVEL PRESSURE IN INCHES OF HG WCI - WIND CHILL INDEX VSB - VISIBILITY IN MILES HX - HEAT INDEX TC - TEMPERATURE IN CELSIUS VRB - VARIABLE WIND DIRECTION N/A - NOT AVAILABLE

USA.gov is the U.S. government's official web portal to all federal, state and local government web resources and services.